Year,Month,Day,Hour,Minute,Value (Times are PST for temperature in C)
2011,01,22,00,00,6.00
2011,01,22,00,01,6.00
2011,01,22,00,02,6.00
2011,01,22,00,03,6.00
2011,01,22,00,04,6.00
2011,01,22,00,05,6.00
2011,01,22,00,06,6.00
2011,01,22,00,07,5.90
2011,01,22,00,08,5.80
2011,01,22,00,09,5.70
2011,01,22,00,10,5.70
2011,01,22,00,11,5.70
2011,01,22,00,12,5.70
2011,01,22,00,13,5.70
2011,01,22,00,14,5.70
2011,01,22,00,15,5.70
2011,01,22,00,16,5.70
2011,01,22,00,17,5.70
2011,01,22,00,18,5.60
2011,01,22,00,19,5.60
2011,01,22,00,20,5.60
2011,01,22,00,21,5.70
2011,01,22,00,22,5.80
2011,01,22,00,23,5.80
2011,01,22,00,24,5.90
2011,01,22,00,25,6.00
2011,01,22,00,26,6.00
2011,01,22,00,27,6.10
2011,01,22,00,28,6.20
2011,01,22,00,29,6.20
2011,01,22,00,30,6.30
2011,01,22,00,31,6.30
2011,01,22,00,32,6.40
2011,01,22,00,33,6.40
2011,01,22,00,34,6.50
2011,01,22,00,35,6.50
2011,01,22,00,36,6.40
2011,01,22,00,37,6.40
2011,01,22,00,38,6.40
2011,01,22,00,39,6.40
2011,01,22,00,40,6.40
2011,01,22,00,41,6.40
2011,01,22,00,42,6.40
2011,01,22,00,43,6.60
2011,01,22,00,44,6.60
2011,01,22,00,45,6.60
2011,01,22,00,46,6.60
2011,01,22,00,47,6.60
2011,01,22,00,48,6.60
2011,01,22,00,49,6.60
2011,01,22,00,50,6.60
2011,01,22,00,51,6.60
2011,01,22,00,52,6.60
2011,01,22,00,53,6.50
2011,01,22,00,54,6.40
2011,01,22,00,55,6.50
2011,01,22,00,56,6.40
2011,01,22,00,57,6.40
2011,01,22,00,58,6.40
2011,01,22,00,59,6.40
2011,01,22,01,00,6.40
2011,01,22,01,01,6.40
2011,01,22,01,02,6.40
2011,01,22,01,03,6.40
2011,01,22,01,04,6.40
2011,01,22,01,05,6.30
2011,01,22,01,06,6.30
2011,01,22,01,07,6.20
2011,01,22,01,08,6.20
2011,01,22,01,09,6.10
2011,01,22,01,10,6.10
2011,01,22,01,11,6.10
2011,01,22,01,12,6.10
2011,01,22,01,13,6.10
2011,01,22,01,14,6.00
2011,01,22,01,15,6.00
2011,01,22,01,16,6.00
2011,01,22,01,17,6.00
2011,01,22,01,18,6.00
2011,01,22,01,19,6.00
2011,01,22,01,20,5.90
2011,01,22,01,21,5.90
2011,01,22,01,22,5.90
2011,01,22,01,23,5.90
2011,01,22,01,24,5.90
2011,01,22,01,25,5.90
2011,01,22,01,26,6.00
2011,01,22,01,27,6.00
2011,01,22,01,28,6.00
2011,01,22,01,29,6.10
2011,01,22,01,30,6.10
2011,01,22,01,31,6.10
2011,01,22,01,32,6.10
2011,01,22,01,33,6.10
2011,01,22,01,34,6.10
2011,01,22,01,35,6.20
2011,01,22,01,36,6.20
2011,01,22,01,37,6.20
2011,01,22,01,38,6.20
2011,01,22,01,39,6.20
2011,01,22,01,40,6.30
2011,01,22,01,41,6.30
2011,01,22,01,42,6.40
2011,01,22,01,43,6.40
2011,01,22,01,44,6.50
2011,01,22,01,45,6.60
2011,01,22,01,46,6.60
2011,01,22,01,47,6.70
2011,01,22,01,48,6.70
2011,01,22,01,49,6.80
2011,01,22,01,50,6.80
2011,01,22,01,51,6.80
2011,01,22,01,52,6.80
2011,01,22,01,53,6.80
2011,01,22,01,54,6.90
2011,01,22,01,55,6.90
2011,01,22,01,56,6.80
2011,01,22,01,57,6.90
2011,01,22,01,58,6.90
2011,01,22,01,59,6.90
2011,01,22,02,00,7.00
2011,01,22,02,01,7.00
2011,01,22,02,02,7.00
2011,01,22,02,03,7.00
2011,01,22,02,04,6.90
2011,01,22,02,05,6.90
2011,01,22,02,06,6.90
2011,01,22,02,07,6.90
2011,01,22,02,08,6.90
2011,01,22,02,09,6.90
2011,01,22,02,10,6.90
2011,01,22,02,11,6.80
2011,01,22,02,12,6.90
2011,01,22,02,13,6.90
2011,01,22,02,14,6.90
2011,01,22,02,15,6.90
2011,01,22,02,16,6.90
2011,01,22,02,17,6.90
2011,01,22,02,18,6.90
2011,01,22,02,19,6.90
2011,01,22,02,20,6.90
2011,01,22,02,21,6.90
2011,01,22,02,22,6.90
2011,01,22,02,23,6.90
2011,01,22,02,24,6.90
2011,01,22,02,25,6.90
2011,01,22,02,26,6.80
2011,01,22,02,27,6.80
2011,01,22,02,28,6.80
2011,01,22,02,29,6.80
2011,01,22,02,30,6.80
2011,01,22,02,31,6.80
2011,01,22,02,32,6.80
2011,01,22,02,33,6.80
2011,01,22,02,34,6.80
2011,01,22,02,35,6.80
2011,01,22,02,36,6.80
2011,01,22,02,37,6.80
2011,01,22,02,38,6.80
2011,01,22,02,39,6.90
2011,01,22,02,40,6.90
2011,01,22,02,41,7.00
2011,01,22,02,42,7.00
2011,01,22,02,43,7.00
2011,01,22,02,44,7.00
2011,01,22,02,45,7.00
2011,01,22,02,46,7.00
2011,01,22,02,47,7.00
2011,01,22,02,48,6.90
2011,01,22,02,49,7.00
2011,01,22,02,50,7.00
2011,01,22,02,51,6.90
2011,01,22,02,52,6.90
2011,01,22,02,53,6.90
2011,01,22,02,54,6.90
2011,01,22,02,55,6.90
2011,01,22,02,56,6.90
2011,01,22,02,57,6.90
2011,01,22,02,58,6.90
2011,01,22,02,59,7.00
2011,01,22,03,00,7.00
2011,01,22,03,01,7.00
2011,01,22,03,02,7.00
2011,01,22,03,03,7.00
2011,01,22,03,04,7.00
2011,01,22,03,05,7.00
2011,01,22,03,06,7.00
2011,01,22,03,07,7.00
2011,01,22,03,08,7.00
2011,01,22,03,09,7.00
2011,01,22,03,10,7.00
2011,01,22,03,11,7.00
2011,01,22,03,12,7.00
2011,01,22,03,13,7.00
2011,01,22,03,14,7.00
2011,01,22,03,15,7.00
2011,01,22,03,16,7.00
2011,01,22,03,17,7.00
2011,01,22,03,18,7.00
2011,01,22,03,19,7.00
2011,01,22,03,20,7.00
2011,01,22,03,21,7.00
2011,01,22,03,22,7.00
2011,01,22,03,23,7.00
2011,01,22,03,24,7.10
2011,01,22,03,25,7.10
2011,01,22,03,26,7.00
2011,01,22,03,27,7.00
2011,01,22,03,28,7.00
2011,01,22,03,29,7.00
2011,01,22,03,30,7.00
2011,01,22,03,31,7.00
2011,01,22,03,32,7.00
2011,01,22,03,33,7.00
2011,01,22,03,34,7.00
2011,01,22,03,35,7.00
2011,01,22,03,36,7.00
2011,01,22,03,37,7.00
2011,01,22,03,38,7.00
2011,01,22,03,39,7.00
2011,01,22,03,40,7.00
2011,01,22,03,41,7.00
2011,01,22,03,42,7.00
2011,01,22,03,43,7.00
2011,01,22,03,44,6.90
2011,01,22,03,45,6.90
2011,01,22,03,46,6.90
2011,01,22,03,47,6.90
2011,01,22,03,48,6.90
2011,01,22,03,49,6.80
2011,01,22,03,50,6.80
2011,01,22,03,51,6.80
2011,01,22,03,52,6.70
2011,01,22,03,53,6.70
2011,01,22,03,54,6.70
2011,01,22,03,55,6.60
2011,01,22,03,56,6.70
2011,01,22,03,57,6.70
2011,01,22,03,58,6.70
2011,01,22,03,59,6.60
2011,01,22,04,00,6.50
2011,01,22,04,01,6.40
2011,01,22,04,02,6.20
2011,01,22,04,03,6.00
2011,01,22,04,04,5.80
2011,01,22,04,05,5.60
2011,01,22,04,06,5.50
2011,01,22,04,07,5.40
2011,01,22,04,08,5.20
2011,01,22,04,09,5.10
2011,01,22,04,10,5.00
2011,01,22,04,11,4.90
2011,01,22,04,12,4.90
2011,01,22,04,13,4.80
2011,01,22,04,14,4.80
2011,01,22,04,15,4.80
2011,01,22,04,16,4.90
2011,01,22,04,17,4.90
2011,01,22,04,18,5.10
2011,01,22,04,19,5.10
2011,01,22,04,20,5.20
2011,01,22,04,21,5.30
2011,01,22,04,22,5.30
2011,01,22,04,23,5.20
2011,01,22,04,24,5.10
2011,01,22,04,25,4.90
2011,01,22,04,26,4.60
2011,01,22,04,27,4.40
2011,01,22,04,28,4.10
2011,01,22,04,29,4.00
2011,01,22,04,30,4.00
2011,01,22,04,31,4.00
2011,01,22,04,32,4.10
2011,01,22,04,33,4.10
2011,01,22,04,34,4.20
2011,01,22,04,35,4.30
2011,01,22,04,36,4.40
2011,01,22,04,37,4.50
2011,01,22,04,38,4.60
2011,01,22,04,39,4.60
2011,01,22,04,40,4.70
2011,01,22,04,41,4.70
2011,01,22,04,42,4.80
2011,01,22,04,43,4.80
2011,01,22,04,44,4.70
2011,01,22,04,45,4.70
2011,01,22,04,46,4.70
2011,01,22,04,47,4.60
2011,01,22,04,48,4.60
2011,01,22,04,49,4.60
2011,01,22,04,50,4.50
2011,01,22,04,51,4.50
2011,01,22,04,52,4.40
2011,01,22,04,53,4.40
2011,01,22,04,54,4.40
2011,01,22,04,55,4.40
2011,01,22,04,56,4.20
2011,01,22,04,57,4.10
2011,01,22,04,58,4.00
2011,01,22,04,59,4.00
2011,01,22,05,00,4.00
2011,01,22,05,01,4.10
2011,01,22,05,02,4.10
2011,01,22,05,03,4.20
2011,01,22,05,04,4.20
2011,01,22,05,05,4.40
2011,01,22,05,06,4.40
2011,01,22,05,07,4.50
2011,01,22,05,08,4.50
2011,01,22,05,09,4.60
2011,01,22,05,10,4.60
2011,01,22,05,11,4.60
2011,01,22,05,12,4.60
2011,01,22,05,13,4.60
2011,01,22,05,14,4.50
2011,01,22,05,15,4.50
2011,01,22,05,16,4.50
2011,01,22,05,17,4.40
2011,01,22,05,18,4.40
2011,01,22,05,19,4.20
2011,01,22,05,20,4.10
2011,01,22,05,21,4.10
2011,01,22,05,22,4.00
2011,01,22,05,23,4.00
2011,01,22,05,24,4.00
2011,01,22,05,25,4.00
2011,01,22,05,26,4.00
2011,01,22,05,27,4.10
2011,01,22,05,28,4.10
2011,01,22,05,29,4.20
2011,01,22,05,30,4.30
2011,01,22,05,31,4.30
2011,01,22,05,32,4.30
2011,01,22,05,33,4.30
2011,01,22,05,34,4.10
2011,01,22,05,35,4.00
2011,01,22,05,36,3.90
2011,01,22,05,37,4.00
2011,01,22,05,38,4.00
2011,01,22,05,39,4.10
2011,01,22,05,40,4.20
2011,01,22,05,41,4.30
2011,01,22,05,42,4.30
2011,01,22,05,43,4.20
2011,01,22,05,44,3.90
2011,01,22,05,45,3.70
2011,01,22,05,46,3.50
2011,01,22,05,47,3.40
2011,01,22,05,48,3.30
2011,01,22,05,49,3.30
2011,01,22,05,50,3.20
2011,01,22,05,51,3.10
2011,01,22,05,52,3.00
2011,01,22,05,53,2.90
2011,01,22,05,54,2.90
2011,01,22,05,55,2.80
2011,01,22,05,56,2.80
2011,01,22,05,57,2.70
2011,01,22,05,58,2.70
2011,01,22,05,59,2.70
2011,01,22,06,00,2.70
2011,01,22,06,01,2.70
2011,01,22,06,02,2.70
2011,01,22,06,03,2.70
2011,01,22,06,04,2.70
2011,01,22,06,05,2.70
2011,01,22,06,06,2.80
2011,01,22,06,07,2.80
2011,01,22,06,08,2.70
2011,01,22,06,09,2.70
2011,01,22,06,10,2.70
2011,01,22,06,11,2.70
2011,01,22,06,12,2.70
2011,01,22,06,13,2.60
2011,01,22,06,14,2.60
2011,01,22,06,15,2.60
2011,01,22,06,16,2.60
2011,01,22,06,17,2.60
2011,01,22,06,18,2.60
2011,01,22,06,19,2.60
2011,01,22,06,20,2.60
2011,01,22,06,21,2.60
2011,01,22,06,22,2.70
2011,01,22,06,23,2.70
2011,01,22,06,24,2.80
2011,01,22,06,25,3.00
2011,01,22,06,26,3.10
2011,01,22,06,27,3.20
2011,01,22,06,28,3.20
2011,01,22,06,29,3.30
2011,01,22,06,30,3.30
2011,01,22,06,31,3.30
2011,01,22,06,32,3.20
2011,01,22,06,33,3.10
2011,01,22,06,34,3.00
2011,01,22,06,35,2.90
2011,01,22,06,36,2.80
2011,01,22,06,37,2.70
2011,01,22,06,38,2.70
2011,01,22,06,39,2.70
2011,01,22,06,40,2.70
2011,01,22,06,41,2.70
2011,01,22,06,42,2.70
2011,01,22,06,43,2.70
2011,01,22,06,44,2.70
2011,01,22,06,45,2.60
2011,01,22,06,46,2.60
2011,01,22,06,47,2.70
2011,01,22,06,48,2.70
2011,01,22,06,49,2.70
2011,01,22,06,50,2.60
2011,01,22,06,51,2.60
2011,01,22,06,52,2.60
2011,01,22,06,53,2.60
2011,01,22,06,54,2.60
2011,01,22,06,55,2.60
2011,01,22,06,56,2.50
2011,01,22,06,57,2.40
2011,01,22,06,58,2.30
2011,01,22,06,59,2.20
2011,01,22,07,00,2.20
2011,01,22,07,01,2.20
2011,01,22,07,02,2.10
2011,01,22,07,03,2.10
2011,01,22,07,04,2.10
2011,01,22,07,05,2.00
2011,01,22,07,06,2.00
2011,01,22,07,07,2.00
2011,01,22,07,08,2.00
2011,01,22,07,09,1.90
2011,01,22,07,10,1.90
2011,01,22,07,11,1.90
2011,01,22,07,12,1.90
2011,01,22,07,13,1.90
2011,01,22,07,14,1.90
2011,01,22,07,15,1.80
2011,01,22,07,16,1.80
2011,01,22,07,17,1.80
2011,01,22,07,18,1.80
2011,01,22,07,19,1.80
2011,01,22,07,20,1.60
2011,01,22,07,21,1.60
2011,01,22,07,22,1.50
2011,01,22,07,23,1.50
2011,01,22,07,24,1.40
2011,01,22,07,25,1.30
2011,01,22,07,26,1.30
2011,01,22,07,27,1.30
2011,01,22,07,28,1.30
2011,01,22,07,29,1.30
2011,01,22,07,30,1.30
2011,01,22,07,31,1.20
2011,01,22,07,32,1.20
2011,01,22,07,33,1.30
2011,01,22,07,34,1.30
2011,01,22,07,35,1.30
2011,01,22,07,36,1.30
2011,01,22,07,37,1.30
2011,01,22,07,38,1.30
2011,01,22,07,39,1.30
2011,01,22,07,40,1.30
2011,01,22,07,41,1.30
2011,01,22,07,42,1.40
2011,01,22,07,43,1.40
2011,01,22,07,44,1.40
2011,01,22,07,45,1.40
2011,01,22,07,46,1.30
2011,01,22,07,47,1.30
2011,01,22,07,48,1.30
2011,01,22,07,49,1.30
2011,01,22,07,50,1.40
2011,01,22,07,51,1.40
2011,01,22,07,52,1.50
2011,01,22,07,53,1.50
2011,01,22,07,54,1.50
2011,01,22,07,55,1.50
2011,01,22,07,56,1.60
2011,01,22,07,57,1.60
2011,01,22,07,58,1.70
2011,01,22,07,59,1.70
2011,01,22,08,00,1.70
2011,01,22,08,01,1.70
2011,01,22,08,02,1.60
2011,01,22,08,03,1.60
2011,01,22,08,04,1.50
2011,01,22,08,05,1.50
2011,01,22,08,06,1.60
2011,01,22,08,07,1.60
2011,01,22,08,08,1.70
2011,01,22,08,09,1.80
2011,01,22,08,10,2.00
2011,01,22,08,11,2.10
2011,01,22,08,12,2.10
2011,01,22,08,13,2.20
2011,01,22,08,14,2.20
2011,01,22,08,15,2.20
2011,01,22,08,16,2.20
2011,01,22,08,17,2.20
2011,01,22,08,18,2.20
2011,01,22,08,19,2.20
2011,01,22,08,20,2.20
2011,01,22,08,21,2.20
2011,01,22,08,22,2.20
2011,01,22,08,23,2.20
2011,01,22,08,24,2.10
2011,01,22,08,25,2.10
2011,01,22,08,26,2.00
2011,01,22,08,27,2.00
2011,01,22,08,28,2.00
2011,01,22,08,29,2.00
2011,01,22,08,30,2.00
2011,01,22,08,31,2.00
2011,01,22,08,32,2.00
2011,01,22,08,33,2.00
2011,01,22,08,34,1.90
2011,01,22,08,35,1.80
2011,01,22,08,36,1.80
2011,01,22,08,37,1.80
2011,01,22,08,38,1.80
2011,01,22,08,39,1.80
2011,01,22,08,40,1.80
2011,01,22,08,41,1.80
2011,01,22,08,42,1.80
2011,01,22,08,43,1.80
2011,01,22,08,44,1.80
2011,01,22,08,45,1.80
2011,01,22,08,46,1.80
2011,01,22,08,47,1.80
2011,01,22,08,48,1.80
2011,01,22,08,49,1.80
2011,01,22,08,50,1.80
2011,01,22,08,51,1.80
2011,01,22,08,52,1.90
2011,01,22,08,53,1.90
2011,01,22,08,54,1.90
2011,01,22,08,55,2.00
2011,01,22,08,56,2.00
2011,01,22,08,57,2.00
2011,01,22,08,58,2.10
2011,01,22,08,59,2.10
2011,01,22,09,00,2.10
2011,01,22,09,01,2.20
2011,01,22,09,02,2.20
2011,01,22,09,03,2.20
2011,01,22,09,04,2.20
2011,01,22,09,05,2.30
2011,01,22,09,06,2.30
2011,01,22,09,07,2.30
2011,01,22,09,08,2.30
2011,01,22,09,09,2.30
2011,01,22,09,10,2.30
2011,01,22,09,11,2.20
2011,01,22,09,12,2.20
2011,01,22,09,13,2.20
2011,01,22,09,14,2.20
2011,01,22,09,15,2.20
2011,01,22,09,16,2.20
2011,01,22,09,17,2.30
2011,01,22,09,18,2.30
2011,01,22,09,19,2.30
2011,01,22,09,20,2.30
2011,01,22,09,21,2.40
2011,01,22,09,22,2.40
2011,01,22,09,23,2.40
2011,01,22,09,24,2.50
2011,01,22,09,25,2.50
2011,01,22,09,26,2.50
2011,01,22,09,27,2.50
2011,01,22,09,28,2.60
2011,01,22,09,29,2.70
2011,01,22,09,30,2.70
2011,01,22,09,31,2.80
2011,01,22,09,32,2.80
2011,01,22,09,33,2.90
2011,01,22,09,34,3.10
2011,01,22,09,35,3.10
2011,01,22,09,36,3.20
2011,01,22,09,37,3.30
2011,01,22,09,38,3.40
2011,01,22,09,39,3.40
2011,01,22,09,40,3.50
2011,01,22,09,41,3.50
2011,01,22,09,42,3.60
2011,01,22,09,43,3.60
2011,01,22,09,44,3.70
2011,01,22,09,45,3.70
2011,01,22,09,46,3.70
2011,01,22,09,47,3.80
2011,01,22,09,48,3.80
2011,01,22,09,49,3.80
2011,01,22,09,50,3.80
2011,01,22,09,51,3.80
2011,01,22,09,52,3.80
2011,01,22,09,53,3.90
2011,01,22,09,54,3.90
2011,01,22,09,55,3.90
2011,01,22,09,56,3.90
2011,01,22,09,57,3.90
2011,01,22,09,58,4.00
2011,01,22,09,59,4.00
2011,01,22,10,00,4.00
2011,01,22,10,01,4.10
2011,01,22,10,02,4.10
2011,01,22,10,03,4.20
2011,01,22,10,04,4.20
2011,01,22,10,05,4.20
2011,01,22,10,06,4.20
2011,01,22,10,07,4.10
2011,01,22,10,08,4.10
2011,01,22,10,09,4.00
2011,01,22,10,10,4.00
2011,01,22,10,11,4.00
2011,01,22,10,12,3.90
2011,01,22,10,13,3.90
2011,01,22,10,14,4.00
2011,01,22,10,15,4.00
2011,01,22,10,16,4.00
2011,01,22,10,17,4.10
2011,01,22,10,18,4.10
2011,01,22,10,19,4.20
2011,01,22,10,20,4.20
2011,01,22,10,21,4.20
2011,01,22,10,22,4.20
2011,01,22,10,23,4.30
2011,01,22,10,24,4.30
2011,01,22,10,25,4.40
2011,01,22,10,26,4.40
2011,01,22,10,27,4.40
2011,01,22,10,28,4.50
2011,01,22,10,29,4.50
2011,01,22,10,30,4.60
2011,01,22,10,31,4.60
2011,01,22,10,32,4.70
2011,01,22,10,33,4.70
2011,01,22,10,34,4.80
2011,01,22,10,35,4.90
2011,01,22,10,36,4.90
2011,01,22,10,37,5.10
2011,01,22,10,38,5.10
2011,01,22,10,39,5.20
2011,01,22,10,40,5.30
2011,01,22,10,41,5.40
2011,01,22,10,42,5.50
2011,01,22,10,43,5.60
2011,01,22,10,44,5.60
2011,01,22,10,45,5.70
2011,01,22,10,46,5.70
2011,01,22,10,47,5.80
2011,01,22,10,48,5.90
2011,01,22,10,49,6.00
2011,01,22,10,50,6.00
2011,01,22,10,51,6.00
2011,01,22,10,52,6.10
2011,01,22,10,53,6.20
2011,01,22,10,54,6.20
2011,01,22,10,55,6.20
2011,01,22,10,56,6.20
2011,01,22,10,57,6.20
2011,01,22,10,58,6.30
2011,01,22,10,59,6.40
2011,01,22,11,00,6.40
2011,01,22,11,01,6.40
2011,01,22,11,02,6.60
2011,01,22,11,03,6.60
2011,01,22,11,04,6.60
2011,01,22,11,05,6.60
2011,01,22,11,06,6.60
2011,01,22,11,07,6.60
2011,01,22,11,08,6.60
2011,01,22,11,09,6.60
2011,01,22,11,10,6.60
2011,01,22,11,11,6.60
2011,01,22,11,12,6.70
2011,01,22,11,13,6.70
2011,01,22,11,14,6.80
2011,01,22,11,15,6.80
2011,01,22,11,16,6.90
2011,01,22,11,17,6.90
2011,01,22,11,18,7.00
2011,01,22,11,19,7.00
2011,01,22,11,20,7.00
2011,01,22,11,21,7.10
2011,01,22,11,22,7.10
2011,01,22,11,23,7.20
2011,01,22,11,24,7.20
2011,01,22,11,25,7.20
2011,01,22,11,26,7.20
2011,01,22,11,27,7.10
2011,01,22,11,28,7.10
2011,01,22,11,29,7.10
2011,01,22,11,30,7.20
2011,01,22,11,31,7.20
2011,01,22,11,32,7.20
2011,01,22,11,33,7.30
2011,01,22,11,34,7.30
2011,01,22,11,35,7.30
2011,01,22,11,36,7.30
2011,01,22,11,37,7.30
2011,01,22,11,38,7.30
2011,01,22,11,39,7.30
2011,01,22,11,40,7.30
2011,01,22,11,41,7.30
2011,01,22,11,42,7.30
2011,01,22,11,43,7.30
2011,01,22,11,44,7.30
2011,01,22,11,45,7.40
2011,01,22,11,46,7.40
2011,01,22,11,47,7.40
2011,01,22,11,48,7.50
2011,01,22,11,49,7.50
2011,01,22,11,50,7.50
2011,01,22,11,51,7.50
2011,01,22,11,52,7.50
2011,01,22,11,53,7.50
2011,01,22,11,54,7.60
2011,01,22,11,55,7.60
2011,01,22,11,56,7.60
2011,01,22,11,57,7.60
2011,01,22,11,58,7.60
2011,01,22,11,59,7.60
2011,01,22,12,00,7.60
2011,01,22,12,01,7.60
2011,01,22,12,02,7.60
2011,01,22,12,03,7.60
2011,01,22,12,04,7.60
2011,01,22,12,05,7.60
2011,01,22,12,06,7.60
2011,01,22,12,07,7.60
2011,01,22,12,08,7.60
2011,01,22,12,09,7.60
2011,01,22,12,10,7.60
2011,01,22,12,11,7.60
2011,01,22,12,12,7.60
2011,01,22,12,13,7.60
2011,01,22,12,14,7.60
2011,01,22,12,15,7.60
2011,01,22,12,16,7.60
2011,01,22,12,17,7.60
2011,01,22,12,18,7.50
2011,01,22,12,19,7.50
2011,01,22,12,20,7.40
2011,01,22,12,21,7.40
2011,01,22,12,22,7.40
2011,01,22,12,23,7.30
2011,01,22,12,24,7.30
2011,01,22,12,25,7.30
2011,01,22,12,26,7.30
2011,01,22,12,27,7.30
2011,01,22,12,28,7.20
2011,01,22,12,29,7.20
2011,01,22,12,30,7.20
2011,01,22,12,31,7.20
2011,01,22,12,32,7.20
2011,01,22,12,33,7.20
2011,01,22,12,34,7.20
2011,01,22,12,35,7.20
2011,01,22,12,36,7.20
2011,01,22,12,37,7.20
2011,01,22,12,38,7.20
2011,01,22,12,39,7.20
2011,01,22,12,40,7.10
2011,01,22,12,41,7.10
2011,01,22,12,42,7.10
2011,01,22,12,43,7.10
2011,01,22,12,44,7.10
2011,01,22,12,45,7.20
2011,01,22,12,46,7.20
2011,01,22,12,47,7.20
2011,01,22,12,48,7.20
2011,01,22,12,49,7.20
2011,01,22,12,50,7.20
2011,01,22,12,51,7.20
2011,01,22,12,52,7.20
2011,01,22,12,53,7.20
2011,01,22,12,54,7.20
2011,01,22,12,55,7.30
2011,01,22,12,56,7.30
2011,01,22,12,57,7.30
2011,01,22,12,58,7.30
2011,01,22,12,59,7.30
2011,01,22,13,00,7.30
2011,01,22,13,01,7.30
2011,01,22,13,02,7.30
2011,01,22,13,03,7.30
2011,01,22,13,04,7.30
2011,01,22,13,05,7.30
2011,01,22,13,06,7.30
2011,01,22,13,07,7.40
2011,01,22,13,08,7.40
2011,01,22,13,09,7.40
2011,01,22,13,10,7.40
2011,01,22,13,11,7.40
2011,01,22,13,12,7.50
2011,01,22,13,13,7.50
2011,01,22,13,14,7.50
2011,01,22,13,15,7.50
2011,01,22,13,16,7.50
2011,01,22,13,17,7.50
2011,01,22,13,18,7.50
2011,01,22,13,19,7.50
2011,01,22,13,20,7.50
2011,01,22,13,21,7.50
2011,01,22,13,22,7.50
2011,01,22,13,23,7.50
2011,01,22,13,24,7.50
2011,01,22,13,25,7.50
2011,01,22,13,26,7.50
2011,01,22,13,27,7.50
2011,01,22,13,28,7.50
2011,01,22,13,29,7.50
2011,01,22,13,30,7.60
2011,01,22,13,31,7.60
2011,01,22,13,32,7.60
2011,01,22,13,33,7.60
2011,01,22,13,34,7.60
2011,01,22,13,35,7.60
2011,01,22,13,36,7.60
2011,01,22,13,37,7.60
2011,01,22,13,38,7.60
2011,01,22,13,39,7.60
2011,01,22,13,40,7.60
2011,01,22,13,41,7.50
2011,01,22,13,42,7.50
2011,01,22,13,43,7.50
2011,01,22,13,44,7.50
2011,01,22,13,45,7.50
2011,01,22,13,46,7.40
2011,01,22,13,47,7.40
2011,01,22,13,48,7.40
2011,01,22,13,49,7.40
2011,01,22,13,50,7.40
2011,01,22,13,51,7.50
2011,01,22,13,52,7.50
2011,01,22,13,53,7.50
2011,01,22,13,54,7.50
2011,01,22,13,55,7.50
2011,01,22,13,56,7.50
2011,01,22,13,57,7.50
2011,01,22,13,58,7.50
2011,01,22,13,59,7.60
2011,01,22,14,00,7.50
2011,01,22,14,01,7.50
2011,01,22,14,02,7.50
2011,01,22,14,03,7.50
2011,01,22,14,04,7.40
2011,01,22,14,05,7.40
2011,01,22,14,06,7.40
2011,01,22,14,07,7.40
2011,01,22,14,08,7.40
2011,01,22,14,09,7.40
2011,01,22,14,10,7.40
2011,01,22,14,11,7.40
2011,01,22,14,12,7.40
2011,01,22,14,13,7.30
2011,01,22,14,14,7.30
2011,01,22,14,15,7.30
2011,01,22,14,16,7.30
2011,01,22,14,17,7.30
2011,01,22,14,18,7.30
2011,01,22,14,19,7.30
2011,01,22,14,20,7.30
2011,01,22,14,21,7.30
2011,01,22,14,22,7.30
2011,01,22,14,23,7.30
2011,01,22,14,24,7.30
2011,01,22,14,25,7.30
2011,01,22,14,26,7.30
2011,01,22,14,27,7.30
2011,01,22,14,28,7.30
2011,01,22,14,29,7.30
2011,01,22,14,30,7.30
2011,01,22,14,31,7.30
2011,01,22,14,32,7.30
2011,01,22,14,33,7.30
2011,01,22,14,34,7.30
2011,01,22,14,35,7.30
2011,01,22,14,36,7.40
2011,01,22,14,37,7.40
2011,01,22,14,38,7.40
2011,01,22,14,39,7.50
2011,01,22,14,40,7.50
2011,01,22,14,41,7.50
2011,01,22,14,42,7.50
2011,01,22,14,43,7.50
2011,01,22,14,44,7.40
2011,01,22,14,45,7.40
2011,01,22,14,46,7.50
2011,01,22,14,47,7.50
2011,01,22,14,48,7.50
2011,01,22,14,49,7.50
2011,01,22,14,50,7.50
2011,01,22,14,51,7.50
2011,01,22,14,52,7.50
2011,01,22,14,53,7.60
2011,01,22,14,54,7.60
2011,01,22,14,55,7.70
2011,01,22,14,56,7.80
2011,01,22,14,57,7.80
2011,01,22,14,58,7.80
2011,01,22,14,59,7.80
2011,01,22,15,00,7.80
2011,01,22,15,01,7.80
2011,01,22,15,02,7.80
2011,01,22,15,03,7.80
2011,01,22,15,04,7.80
2011,01,22,15,05,7.80
2011,01,22,15,06,7.80
2011,01,22,15,07,7.80
2011,01,22,15,08,7.80
2011,01,22,15,09,7.90
2011,01,22,15,10,7.80
2011,01,22,15,11,7.80
2011,01,22,15,12,7.80
2011,01,22,15,13,7.80
2011,01,22,15,14,7.80
2011,01,22,15,15,7.80
2011,01,22,15,16,7.80
2011,01,22,15,17,7.80
2011,01,22,15,18,7.80
2011,01,22,15,19,7.70
2011,01,22,15,20,7.70
2011,01,22,15,21,7.80
2011,01,22,15,22,7.70
2011,01,22,15,23,7.70
2011,01,22,15,24,7.70
2011,01,22,15,25,7.70
2011,01,22,15,26,7.70
2011,01,22,15,27,7.80
2011,01,22,15,28,7.80
2011,01,22,15,29,7.80
2011,01,22,15,30,7.80
2011,01,22,15,31,7.80
2011,01,22,15,32,7.80
2011,01,22,15,33,7.80
2011,01,22,15,34,7.80
2011,01,22,15,35,7.80
2011,01,22,15,36,7.80
2011,01,22,15,37,7.90
2011,01,22,15,38,7.90
2011,01,22,15,39,7.90
2011,01,22,15,40,7.90
2011,01,22,15,41,7.80
2011,01,22,15,42,7.80
2011,01,22,15,43,7.80
2011,01,22,15,44,7.80
2011,01,22,15,45,7.80
2011,01,22,15,46,7.80
2011,01,22,15,47,7.80
2011,01,22,15,48,7.80
2011,01,22,15,49,7.80
2011,01,22,15,50,7.70
2011,01,22,15,51,7.70
2011,01,22,15,52,7.70
2011,01,22,15,53,7.70
2011,01,22,15,54,7.70
2011,01,22,15,55,7.60
2011,01,22,15,56,7.60
2011,01,22,15,57,7.60
2011,01,22,15,58,7.60
2011,01,22,15,59,7.60
2011,01,22,16,00,7.70
2011,01,22,16,01,7.70
2011,01,22,16,02,7.70
2011,01,22,16,03,7.70
2011,01,22,16,04,7.70
2011,01,22,16,05,7.60
2011,01,22,16,06,7.60
2011,01,22,16,07,7.60
2011,01,22,16,08,7.60
2011,01,22,16,09,7.60
2011,01,22,16,10,7.60
2011,01,22,16,11,7.60
2011,01,22,16,12,7.60
2011,01,22,16,13,7.60
2011,01,22,16,14,7.60
2011,01,22,16,15,7.60
2011,01,22,16,16,7.60
2011,01,22,16,17,7.60
2011,01,22,16,18,7.60
2011,01,22,16,19,7.60
2011,01,22,16,20,7.60
2011,01,22,16,21,7.50
2011,01,22,16,22,7.50
2011,01,22,16,23,7.50
2011,01,22,16,24,7.50
2011,01,22,16,25,7.50
2011,01,22,16,26,7.50
2011,01,22,16,27,7.50
2011,01,22,16,28,7.50
2011,01,22,16,29,7.50
2011,01,22,16,30,7.50
2011,01,22,16,31,7.40
2011,01,22,16,32,7.40
2011,01,22,16,33,7.40
2011,01,22,16,34,7.40
2011,01,22,16,35,7.40
2011,01,22,16,36,7.40
2011,01,22,16,37,7.40
2011,01,22,16,38,7.40
2011,01,22,16,39,7.40
2011,01,22,16,40,7.40
2011,01,22,16,41,7.30
2011,01,22,16,42,7.30
2011,01,22,16,43,7.30
2011,01,22,16,44,7.30
2011,01,22,16,45,7.30
2011,01,22,16,46,7.30
2011,01,22,16,47,7.30
2011,01,22,16,48,7.30
2011,01,22,16,49,7.30
2011,01,22,16,50,7.30
2011,01,22,16,51,7.30
2011,01,22,16,52,7.30
2011,01,22,16,53,7.20
2011,01,22,16,54,7.20
2011,01,22,16,55,7.20
2011,01,22,16,56,7.20
2011,01,22,16,57,7.10
2011,01,22,16,58,7.10
2011,01,22,16,59,7.00
2011,01,22,17,00,7.00
2011,01,22,17,01,6.90
2011,01,22,17,02,6.90
2011,01,22,17,03,6.80
2011,01,22,17,04,6.80
2011,01,22,17,05,6.80
2011,01,22,17,06,6.80
2011,01,22,17,07,6.80
2011,01,22,17,08,6.80
2011,01,22,17,09,6.80
2011,01,22,17,10,6.80
2011,01,22,17,11,6.80
2011,01,22,17,12,6.80
2011,01,22,17,13,6.80
2011,01,22,17,14,6.80
2011,01,22,17,15,6.80
2011,01,22,17,16,6.80
2011,01,22,17,17,6.80
2011,01,22,17,18,6.80
2011,01,22,17,19,6.70
2011,01,22,17,20,6.70
2011,01,22,17,21,6.70
2011,01,22,17,22,6.70
2011,01,22,17,23,6.70
2011,01,22,17,24,6.70
2011,01,22,17,25,6.70
2011,01,22,17,26,6.70
2011,01,22,17,27,6.70
2011,01,22,17,28,6.70
2011,01,22,17,29,6.70
2011,01,22,17,30,6.70
2011,01,22,17,31,6.70
2011,01,22,17,32,6.70
2011,01,22,17,33,6.70
2011,01,22,17,34,6.60
2011,01,22,17,35,6.60
2011,01,22,17,36,6.60
2011,01,22,17,37,6.60
2011,01,22,17,38,6.60
2011,01,22,17,39,6.60
2011,01,22,17,40,6.60
2011,01,22,17,41,6.60
2011,01,22,17,42,6.50
2011,01,22,17,43,6.40
2011,01,22,17,44,6.40
2011,01,22,17,45,6.40
2011,01,22,17,46,6.40
2011,01,22,17,47,6.40
2011,01,22,17,48,6.40
2011,01,22,17,49,6.40
2011,01,22,17,50,6.40
2011,01,22,17,51,6.40
2011,01,22,17,52,6.40
2011,01,22,17,53,6.40
2011,01,22,17,54,6.50
2011,01,22,17,55,6.60
2011,01,22,17,56,6.60
2011,01,22,17,57,6.60
2011,01,22,17,58,6.60
2011,01,22,17,59,6.60
2011,01,22,18,00,6.60
2011,01,22,18,01,6.60
2011,01,22,18,02,6.50
2011,01,22,18,03,6.40
2011,01,22,18,04,6.40
2011,01,22,18,05,6.40
2011,01,22,18,06,6.40